Вернуться в каталог

FENGYUN 1C DEB

АктивенSSO
NORAD 31776·DEBRIS·🇨🇳 China

Запущен May 10, 1999 с Taiyuan Satellite Launch Center

Loading…

Ближайшие Пролёты (ближайшие 24 часа)

TLE

СвежийSource: Space-Track

Эпоха: Sep 12, 2026, 10:30 UTC

1 31776U 99025CGB 26255.43777013  .00001435  00000-0  68859-3 0  9993
2 31776  99.0568 326.4506 0052376 274.1138 148.9748 14.19886524987630

Отслеживайте FENGYUN 1C DEB в реальном времени с AllMySat

Download on the App Store